Location: ??
(35.4032°N, 139.3073°E)
Time: 12:51:27
(UTC+00:00)

Cosmos 1666 Rocket - Pass Details

Date: 13 April 2024
Orbit: 600 x 630 km, 82.5° (Epoch: 26 May)

Event Time Altitude Azimuth Distance (km) Brightness Sun altitude
Rises 19:06:24 0° 343° (NNW) 2,923 7.1 -13.6°
Reaches altitude 10° 19:08:47 10° 335° (NNW) 2,009 6.2 -13.1°
Maximum altitude 19:12:51 36° 269° (W) 992 4.1 -12.3°
Drops below altitude 10° 19:16:52 10° 203° (SSW) 1,983 5.8 -11.6°
Sets 19:19:12 0° 194° (SSW) 2,879 6.7 -11.1°
